Home   Weather   Legnica   Past weeks

Flag for Poland Past Weather in Legnica, Poland — Yesterday and Last 2 Weeks

Now
54 °F

Overcast.


Feels Like: 53 °F
Forecast: 39 / 49 °F
Wind: 6 mph from Southwest

Location: Wroclaw Ii

Current Time: Feb 28, 2017 at 3:42:37 pm

Latest Report: Feb 28, 2017 at 2:00 pm


Visibility: 25 mi

Pressure: 29.47 "Hg

Humidity: 54%

Dew Point: 38 °F

Location of LegnicaLocation

Past Weather in Legnica — Graph

°F

Legnica Temperature Yesterday

Maximum temperature yesterday: 60 °F (at 3:00 pm)
Minimum temperature yesterday: 38 °F (at 6:00 am)
Average temperature yesterday: 50 °F

High & Low Weather Summary for the Past Weeks

 TemperatureHumidityPressure
High60 °F (Feb 27, 3:00 pm)97% (Feb 18, 1:00 am)30.70 "Hg (Feb 18, 1:00 am)
Low20 °F (Feb 15, 6:00 am)30% (Feb 15, 1:00 pm)29.23 "Hg (Feb 23, 11:00 pm)
Average40 °F75%30.03 "Hg
* Reported Feb 13 2:00 pm — Feb 28 2:00 pm, Legnica, Weather by CustomWeather, © 2017

Note: Actual official high and low records may vary slightly from our data, if they occured in-between our weather recording intervals... More about our weather records

Advertising

Legnica Weather History for the Previous 24 Hours

Scroll right to see more
 ConditionsComfort  
Time TempWeatherWind HumidityBarometerVisibility
2:00 pm
Tue, Feb 28
54 °FOvercast.6 mph54%29.47 "Hg25 mi
1:00 pm54 °FPartly sunny.6 mph52%29.44 "Hg25 mi
12:00 pm53 °FOvercast.6 mph54%29.47 "Hg25 mi
11:00 am54 °FPassing clouds.24 mph49%29.47 "Hg7 mi
10:00 am53 °FOvercast.5 mph48%29.47 "Hg25 mi
9:00 am46 °FOvercast.2 mph70%29.44 "Hg19 mi
8:00 am45 °FOvercast.3 mph71%29.44 "Hg19 mi
7:00 am45 °FOvercast.5 mph71%29.44 "Hg25 mi
6:00 am46 °FOvercast.3 mph70%29.44 "Hg25 mi
5:00 am46 °FOvercast.3 mph72%29.44 "Hg25 mi
4:00 am48 °FOvercast.6 mph68%29.47 "Hg25 mi
3:00 am46 °FOvercast.3 mph75%29.50 "Hg31 mi
2:00 am47 °FPassing clouds.5 mph70%29.53 "Hg31 mi
1:00 am44 °FPassing clouds.3 mph78%29.54 "Hg31 mi
12:00 am45 °FPassing clouds.24 mph75%29.56 "Hg9 mi
11:00 pm
Mon, Feb 27
51 °FPassing clouds.35 mph65%29.56 "Hg3 mi
10:00 pm51 °FOvercast.8 mph62%29.59 "Hg31 mi
9:00 pm47 °FOvercast.3 mph65%29.62 "Hg31 mi
8:00 pm51 °FOvercast.5 mph54%29.63 "Hg31 mi
7:00 pm54 °FPassing clouds.28 mph46%29.65 "Hg2 mi
6:00 pm54 °FOvercast.5 mph45%29.66 "Hg31 mi
5:00 pm55 °FOvercast.5 mph50%29.66 "Hg31 mi
3:00 pm60 °FPassing clouds.7 mph37%29.72 "Hg31 mi
Weather by CustomWeather, © 2017

See weather overviewHow to use our weather pages